AirNav   Air Wisconsin pilot careers
 
 332 users online  

65WN Whoopy Hollow Aerodrome
Wiota, Wisconsin, USA

GOING TO WIOTA?


FAA INFORMATION EFFECTIVE 07 DECEMBER 2017

Location

FAA Identifier: 65WN
Lat/Long: 42-40-35.2132N / 089-56-16.7465W
42-40.586887N / 089-56.279108W
42.6764481 / -89.9379851
(estimated)
Elevation: 925 ft. / 282 m (estimated)
Variation: 01W (2000)
From city: 3 miles N of WIOTA, WI
Time zone: UTC -6 (UTC -5 during Daylight Saving Time)
Zip code: 53504

Airport Operations

Airport use: Private use. Permission required prior to landing
Activation date: 06/2002
Control tower: no
ARTCC: CHICAGO CENTER
FSS: GREEN BAY FLIGHT SERVICE STATION
Attendance: UNATNDD
Wind indicator: yes
Segmented circle: no

Airport Communications

WX AWOS-3 at EFT (16 nm E): 118.375 (608-328-8359)
WX AWOS-3 at MRJ (18 nm NW): 118.525 (608-987-2157)

Nearby radio navigation aids

VOR radial/distance  VOR name  Freq  Var
JVLr278/37.4JANESVILLE VOR/DME114.3003E
DBQr060/37.9DUBUQUE VORTAC115.8004E
LNRr167/38.1LONE ROCK VOR/DME112.8000E
MSNr220/38.5MADISON VORTAC108.6003E

 
NDB name  Hdg/Dist  Freq  Var  ID
MINERAL POINT134/18.036501EMRJ -- .-. .---

Airport Services

Runway Information

Runway 13/31

Dimensions: 1800 x 75 ft. / 549 x 23 m
Surface: turf
RUNWAY 13  RUNWAY 31
Traffic pattern: leftleft

Airport Ownership and Management from official FAA records

Ownership: Privately-owned
Owner: MICHAEL & BARBARA DINGES
6062 WHITESIDE RD.
ARGYLE, WI 53504
Phone 608-553-3466
Manager: MICHAEL & BARBARA DINGES
6062 WHITESIDE RD.
ARGYLE, WI 53504
Phone 608-553-3466

Airport Operational Statistics

Aircraft based on the field: 2
Single engine airplanes: 2
    

Instrument Procedures

There are no published instrument procedures at 65WN.

Some nearby airports with instrument procedures:

KEFT - Monroe Municipal Airport (16 nm E)
KMRJ - Iowa County Airport (18 nm NW)
KPVB - Platteville Municipal Airport (22 nm W)
KFEP - Albertus Airport (30 nm SE)
C29 - Middleton Municipal Airport - Morey Field (32 nm NE)
 
Loc | Ops | Rwys | IFR | FBO | Links
Com | Nav | Svcs | Stats | Notes


 
Area around 65WN (Whoopy Hollow Aerodrome)
 
Road maps at: MapQuest Bing Google
 
Aerial photo
No photo
 
Sectional chart

 
Airport distance calculator
Flying to Whoopy Hollow Aerodrome? Find the distance to fly.

From to 65WN

Sunrise and sunset
Times for 16-Dec-2017
 Local
(UTC-6)
 Zulu
(UTC)
Morning civil twilight06:5312:53
Sunrise07:2513:25
Sunset16:2622:26
Evening civil twilight16:5822:58

Current date and time
Zulu (UTC)  16-Dec-2017 08:42:06
Local (UTC-6)  16-Dec-2017 02:42:06
 
METAR
KEFT 
16nm E 
160815Z AUTO 19011KT 10SM SCT080 00/M05 A2977 RMK AO2
KMRJ 
17nm NW 
160815Z AUTO 18007KT 10SM CLR 01/M03 A2975 RMK AO2
KPVB 
22nm W 
160815Z AUTO 19009KT 10SM CLR 01/M04 A2975 RMK AO1 T00091036
KFEP 
30nm SE 
160815Z AUTO 21012G15KT 10SM SCT080 SCT120 01/M05 A2982 RMK AO2 T00071047
KC29 
32nm NE 
160815Z AUTO 19005KT 10SM OVC085 02/M04 A2976 RMK AO1 T00211042
TAF
KDBQ 
38nm SW 
160520Z 1606/1706 20010KT P6SM SCT100 FM162100 VRB03KT P6SM SCT100 TEMPO 1703/1706 3SM BR SCT010
KMSN 
38nm NE 
160520Z 1606/1706 18004KT P6SM SCT030 OVC050 FM161400 09008KT P6SM BKN060 FM170300 09006KT P6SM BKN030
KRFD 
47nm SE 
160520Z 1606/1706 21008KT P6SM BKN090 FM162100 12005KT P6SM FEW150
NOTAMs
Click for the latest NOTAMs
NOTAMs are issued by the DoD/FAA and will open in a separate window not controlled by AirNav.

 

 
 

Would you like to see your business listed on this page?

 If your business provides an interesting product or service to pilots, flight crews, aircraft, or users of the Whoopy Hollow Aerodrome, you should consider listing it here.  To start the listing process, click on the button below
 
Add a business
 

Other Pages about Whoopy Hollow Aerodrome

Update a link
 
Copyright © AirNav, LLC. All rights reserved. Privacy Policy  Contact